Wind_Speed
17 18 18 19 19 19 18 17 17 16 16 15 14 14 14 16 19 19 17 13 8 8 11 16 9 4 4 6 3 13 9 6 8 9 9 3 5 2 6 4 5 3 3 1 3 7 5
17 18 18 19 19 20 20 19 19 17 15 14 13 14 16 16 17 16 14 9 7 9 11 13 12 4 6 5 12 11 7 2 4 6 8 6 3 2 1 4 3 3 3 2 6 4 3
17 18 19 19 20 21 21 21 20 18 16 14 12 13 14 15 15 15 11 5 1 2 7 13 7 8 9 3 10 5 4 5 4 4 4 5 3 1 2 5 3 5 5 3 7 4 3
17 18 18 19 21 22 23 24 21 19 17 14 10 12 13 13 14 14 12 8 3 5 7 8 6 10 4 12 5 6 5 8 4 5 8 6 5 2 1 3 5 4 5 4 4 4 1
17 18 19 20 22 23 24 25 23 20 16 13 10 11 12 12 12 12 7 6 5 4 4 3 10 9 3 12 4 5 9 5 5 6 6 5 2 1 3 5 4 7 4 3 3 4 1
17 17 18 20 21 23 24 25 23 19 16 11 12 11 11 10 10 12 13 5 5 7 3 5 9 7 2 2 8 4 5 8 6 4 5 4 4 3 3 4 6 3 5 3 5 5 5
15 17 18 20 21 23 25 25 24 20 15 12 12 12 13 9 9 14 15 2 7 5 10 3 2 6 3 9 1 12 10 6 4 3 4 2 5 4 2 3 3 5 5 6 2 4 4
15 16 17 18 21 22 24 26 25 20 13 13 13 13 13 9 8 9 11 7 2 1 2 3 1 2 7 5 2 4 5 5 4 2 4 4 4 2 1 6 6 4 7 3 2 5 3
14 15 16 18 20 23 26 27 26 24 12 10 14 13 11 8 5 4 9 5 1 0 3 4 1 2 2 6 4 4 2 2 3 2 2 4 1 1 1 6 7 4 5 3 5 2 5
15 15 16 18 21 23 26 29 29 26 15 9 12 13 8 4 1 3 3 4 3 1 5 9 6 3 2 1 3 4 4 2 4 2 0 6 4 4 4 6 2 4 3 3 7 3 3
15 15 17 18 21 23 26 28 30 29 20 8 10 13 7 5 3 3 2 4 2 1 5 10 9 6 4 4 2 5 2 3 2 2 4 2 5 6 7 1 2 3 1 3 4 5 4
15 16 17 18 21 23 25 28 29 30 22 10 10 12 6 3 3 3 3 2 1 6 2 6 4 7 6 6 6 5 5 6 1 5 6 3 1 4 2 2 2 6 5 6 4 3 3
15 17 17 18 20 23 25 27 28 29 24 9 9 10 9 6 2 4 4 2 5 6 3 6 3 5 1 6 7 7 5 7 4 5 6 5 4 4 5 4 2 4 5 3 4 4 4
14 17 17 18 20 22 25 27 28 30 26 10 3 7 7 7 5 4 2 5 8 4 4 3 3 3 4 5 4 7 3 5 5 5 3 4 5 7 8 3 1 2 3 5 5 3 3
12 15 16 17 19 21 24 27 28 30 29 11 4 1 4 6 5 3 5 6 5 3 3 5 3 5 5 3 2 4 5 2 2 4 4 3 3 3 4 3 2 2 2 2 7 2 2
11 13 14 16 18 20 24 27 29 29 29 13 3 2 5 5 5 3 5 3 1 2 3 3 3 3 5 6 3 4 2 2 4 3 2 2 4 2 4 1 5 2 5 3 3 3 2
11 13 13 14 16 19 22 26 29 28 26 11 2 3 6 4 3 5 4 2 1 2 1 4 3 3 3 3 4 4 1 1 0 3 3 2 2 4 2 5 1 2 2 5 3 2 4
11 13 13 14 15 18 21 25 29 29 25 9 3 3 7 4 4 2 3 3 1 1 2 1 2 2 1 4 5 4 3 3 6 2 1 0 4 3 1 1 1 1 1 3 3 2 2
12 12 12 13 14 16 20 23 26 30 24 6 2 1 5 3 3 2 1 1 1 1 2 2 2 2 1 3 3 3 3 2 6 4 2 1 1 3 4 3 2 2 3 4 4 2 4
11 11 11 12 13 15 18 21 24 25 21 6 3 3 4 4 1 4 2 1 2 0 2 1 1 2 1 3 2 1 3 3 5 3 9 3 1 3 5 4 4 3 4 4 4 3 3
11 11 12 12 12 14 17 20 23 23 17 4 3 1 2 2 4 3 2 0 1 1 1 1 2 2 1 2 1 1 1 2 3 4 3 3 2 4 3 4 3 3 5 8 8 5 6
13 11 11 10 10 12 14 18 21 23 14 6 2 2 2 1 1 1 3 0 1 1 1 2 2 2 2 2 2 3 3 3 2 2 2 2 3 2 3 1 3 5 7 7 4 2 7
12 10 9 8 7 10 11 15 19 22 12 5 3 2 3 3 1 2 3 3 2 1 1 1 0 1 2 0 3 2 1 2 1 2 2 2 4 1 3 1 5 5 6 6 5 5 5
14 12 10 9 6 6 8 11 14 17 18 6 4 2 3 2 1 3 2 3 4 4 3 1 2 1 1 2 2 3 3 3 3 5 2 3 3 2 3 4 1 2 3 5 6 4 6
14 12 10 9 7 6 5 7 9 10 12 10 5 2 2 2 2 2 3 2 1 1 2 3 3 2 1 3 2 3 3 1 3 4 2 3 3 1 1 2 6 2 2 4 3 1 3
2 7 11 10 9 8 6 5 5 7 8 8 5 4 3 3 3 1 2 2 3 2 2 1 1 1 4 3 2 1 3 2 2 1 3 3 4 3 1 2 4 3 2 2 3 2 5
9 7 5 6 8 9 9 8 7 5 6 5 3 2 2 1 3 3 3 4 4 2 2 1 2 1 3 2 2 4 4 3 3 4 3 2 1 4 3 3 8 5 4 2 2 3 5
10 10 9 8 11 9 10 10 10 9 8 5 3 3 1 1 4 5 4 4 2 2 4 3 2 1 2 2 3 3 3 4 2 5 6 6 5 4 3 2 7 6 2 4 4 1 1
10 10 10 10 10 9 12 11 12 14 13 11 6 6 6 2 5 5 9 9 6 5 4 3 3 4 5 3 2 2 2 0 2 3 1 3 6 4 8 6 4 3 1 2 2 2 2
Wind_Direction
34 32 26 22 18 12 5 360 351 346 345 345 349 351 353 353 356 8 20 24 24 14 42 44 36 53 4 47 9 347 348 360 104 103 101 102 124 175 135 158 119 141 176 34 81 89 76
32 28 23 19 15 9 6 1 355 347 346 341 340 344 343 346 353 4 17 25 54 58 51 39 39 80 79 55 333 341 2 27 114 100 106 72 87 305 176 132 145 145 117 103 52 54 54
28 24 20 16 12 7 5 1 358 350 344 343 339 346 345 345 350 351 1 14 328 40 22 20 26 88 70 359 349 6 67 52 119 70 76 103 353 18 185 115 172 152 90 66 29 9 86
25 21 16 15 11 7 5 3 359 353 345 344 345 348 350 349 351 352 352 348 259 247 321 17 55 75 51 351 58 59 81 62 134 115 122 109 336 267 302 136 36 69 52 102 353 12 354
23 20 16 14 11 7 6 4 3 358 349 345 353 355 357 354 354 356 354 356 0 303 278 41 48 88 19 355 17 50 76 47 126 167 109 3 204 115 35 92 48 21 117 107 95 42 252
22 18 16 15 12 9 7 8 5 3 359 356 354 359 360 358 355 355 353 314 33 47 57 103 107 71 256 311 328 341 72 71 74 100 16 16 47 85 41 86 181 146 113 53 111 338 49
19 18 14 14 11 8 7 6 6 7 15 9 354 355 356 354 352 5 17 20 21 348 37 51 21 119 92 56 68 50 59 65 52 34 123 339 70 110 95 99 134 136 117 109 25 340 86
17 15 13 13 10 10 10 7 7 7 18 12 357 337 337 335 343 356 19 76 131 223 7 26 44 50 115 179 105 308 344 83 77 165 356 31 65 318 273 90 97 70 114 70 71 10 85
11 11 12 10 8 13 16 12 5 3 9 6 359 348 332 322 339 2 58 77 53 34 106 353 313 95 152 163 108 299 208 333 116 139 244 95 327 332 56 57 83 38 104 166 132 107 64
10 8 11 12 15 15 14 14 9 4 360 360 2 360 358 339 43 26 54 16 16 58 70 324 345 13 21 154 89 177 236 247 26 126 70 73 327 108 67 73 58 62 313 100 99 89 151
10 8 13 18 15 14 13 14 12 6 3 6 6 6 12 44 93 63 354 344 2 88 53 313 313 311 355 86 318 19 20 77 80 338 117 344 13 37 69 352 353 145 142 87 97 91 101
8 10 11 14 14 13 12 11 11 9 11 13 13 13 17 47 70 47 344 350 2 44 287 336 318 354 16 14 9 321 38 33 155 56 36 75 36 52 76 40 62 143 75 45 55 78 41
7 8 8 11 12 11 10 8 8 8 5 12 20 23 34 43 49 0 351 51 41 87 282 313 323 9 36 358 13 29 32 26 46 51 16 2 9 350 37 74 60 82 61 17 19 14 214
7 5 7 7 8 8 8 7 5 3 3 356 346 24 40 42 24 14 33 48 69 244 254 320 318 309 68 4 37 7 56 29 20 46 79 107 1 6 340 38 170 63 139 149 166 174 242
355 360 3 3 5 6 6 6 4 1 360 355 340 1 34 9 5 8 74 49 187 239 333 339 336 32 352 8 96 86 51 21 313 8 99 105 31 324 41 0 34 173 67 141 106 68 48
346 350 358 359 2 3 4 5 3 1 358 2 10 59 23 2 4 36 73 122 24 251 337 2 37 21 354 335 28 60 34 250 326 19 215 182 84 356 299 281 38 76 136 65 7 120 273
336 340 350 358 358 359 2 3 2 0 358 0 46 44 359 358 24 52 92 179 261 234 66 22 2 346 3 346 22 2 301 358 329 317 64 120 98 300 342 14 3 26 32 56 111 78 155
322 340 344 352 354 356 360 3 3 0 1 358 68 26 350 8 45 41 101 158 213 53 55 55 107 33 20 1 10 31 23 346 341 306 66 162 123 113 159 284 296 33 90 110 108 238 57
319 341 344 346 349 354 358 2 3 1 3 350 74 253 354 22 73 22 256 133 111 63 50 71 63 71 42 27 33 36 5 29 8 21 341 250 16 78 357 358 347 187 167 114 106 97 201
305 324 339 343 348 353 357 360 3 2 359 10 70 19 340 46 69 117 125 31 92 205 96 99 161 155 89 53 13 28 12 355 2 48 35 32 43 171 182 185 131 186 186 175 135 137 185
296 309 326 336 344 349 355 357 1 2 360 27 33 221 187 327 360 68 48 72 75 57 105 69 73 40 130 93 68 98 241 332 16 359 50 81 30 33 320 333 322 237 187 181 195 185 188
284 295 307 324 333 342 352 358 1 3 4 69 90 116 14 113 307 57 8 54 318 336 2 349 105 148 167 178 194 207 167 201 201 30 56 351 163 106 306 81 195 265 260 249 269 296 280
269 280 295 307 326 340 350 357 3 7 14 75 77 82 107 298 45 93 212 162 165 158 4 5 263 53 343 219 182 274 313 107 113 177 151 117 131 80 263 237 273 272 212 185 182 191 189
258 266 276 288 297 320 339 351 3 11 21 28 45 90 85 260 176 216 207 196 193 185 180 207 140 163 141 87 98 105 77 81 77 19 26 128 100 119 250 0 322 277 161 189 194 201 209
248 253 264 271 279 293 319 338 353 6 16 29 29 40 91 277 204 274 220 237 86 347 190 188 175 164 138 79 33 1 341 20 50 50 11 25 124 81 131 227 288 65 222 155 177 272 193
149 222 248 262 261 263 270 292 321 339 355 14 31 26 91 111 258 353 137 182 207 222 328 245 37 129 77 85 84 169 246 249 274 8 45 74 75 115 132 159 242 220 199 197 157 313 199
332 322 286 259 256 260 257 253 262 278 306 333 334 18 98 150 253 152 185 188 139 127 160 292 178 90 23 102 152 190 239 178 226 196 170 109 90 190 195 255 286 242 218 161 172 227 195
342 331 316 310 280 279 263 261 247 247 252 252 265 259 345 181 278 207 205 163 143 161 163 189 73 351 57 160 175 215 199 222 180 179 175 177 155 198 141 202 275 182 106 174 212 296 259
334 340 337 328 306 305 269 266 260 245 239 231 217 224 213 196 246 245 244 244 231 205 148 188 191 165 186 108 193 120 205 99 189 251 22 228 192 188 189 212 246 225 299 126 134 225 277
Height
841 838 836 834 832 830 827 824 821 818 816 813 811 809 807 804 802 799 797 794 792 790 788 787 785 784 783 788 793 790 788 787 786 786 788 791 794 798 798 798 799 802 802 802 800 800 803
842 840 838 835 833 830 827 824 820 817 814 812 810 808 806 804 801 799 797 795 792 791 790 788 785 784 785 794 793 790 788 789 787 788 790 793 797 799 797 797 798 800 802 804 802 803 805
843 841 839 836 833 830 827 823 819 815 813 811 809 807 806 803 801 798 797 795 793 792 791 788 786 785 790 798 792 791 790 790 790 790 789 793 797 798 795 797 799 801 804 803 807 806 806
845 842 840 837 833 830 826 822 818 814 811 809 808 807 805 802 800 797 796 794 792 792 791 790 788 787 796 796 793 793 792 793 793 794 795 795 797 798 796 797 802 804 808 811 807 806 805
846 843 840 837 834 830 826 822 818 814 810 808 807 806 804 802 800 797 795 794 792 790 791 791 789 789 803 798 795 795 794 794 794 795 796 798 798 800 798 803 810 816 819 814 809 811 806
846 844 842 838 835 832 827 822 818 814 810 808 807 805 804 802 800 798 794 793 794 792 792 792 793 797 805 802 797 794 795 795 794 796 796 798 800 804 808 806 813 812 822 818 814 815 808
847 844 842 839 836 832 828 823 818 814 810 808 807 805 804 802 801 799 795 793 798 797 794 801 801 800 804 802 798 795 793 794 796 798 805 802 810 813 810 807 809 812 813 817 819 818 813
847 845 842 839 836 832 828 823 818 814 811 809 807 804 803 802 801 799 798 801 805 806 804 799 799 799 800 800 802 799 798 800 806 807 802 806 813 812 810 808 811 813 814 822 821 821 814
848 845 842 839 836 832 828 824 819 814 811 808 806 803 801 801 800 800 800 803 804 805 806 800 799 799 800 800 804 801 800 797 801 806 805 806 813 810 809 813 813 826 820 823 818 822 834
848 845 842 839 836 832 828 824 819 815 810 808 806 803 801 799 802 802 803 803 803 804 827 815 804 800 799 798 802 799 799 800 799 805 809 813 813 810 813 817 817 820 823 822 822 823 834
849 846 842 839 836 832 828 825 820 814 809 807 805 803 801 800 802 803 806 804 803 804 851 814 808 799 799 801 803 801 801 801 806 808 806 818 816 816 818 821 818 821 822 824 828 836 843
850 846 843 840 836 833 829 825 821 815 810 808 806 804 802 802 802 804 803 803 804 832 849 822 813 812 807 806 807 804 803 801 803 808 813 820 818 821 821 823 820 826 825 831 840 840 853
850 847 844 840 837 834 830 826 821 816 811 808 806 805 803 802 804 803 803 803 830 849 831 822 819 815 814 816 813 815 818 822 822 825 835 825 825 824 823 820 821 824 832 859 848 857 846
850 848 844 841 838 834 830 826 821 816 811 807 806 805 805 804 804 803 803 818 838 839 831 822 820 816 815 816 817 823 822 832 825 827 845 849 846 834 830 830 823 830 831 854 848 855 848
849 847 845 842 839 835 831 826 821 816 810 807 805 806 805 805 804 803 810 845 854 837 827 826 820 821 821 817 814 823 835 835 830 830 827 837 836 834 833 831 831 827 836 840 868 893 864
849 847 845 842 839 836 831 827 821 816 810 806 806 806 807 806 805 804 823 840 834 834 830 828 824 827 826 826 820 821 828 829 831 829 828 830 835 838 833 831 833 830 842 840 852 843 846
848 847 844 842 840 836 832 827 822 816 810 806 805 810 808 806 806 813 843 843 833 829 829 831 830 828 829 829 829 832 830 829 830 827 827 826 831 840 835 839 836 836 836 848 851 857 845
848 846 844 841 839 837 833 827 822 816 811 807 807 822 808 807 818 836 837 828 826 827 828 827 827 828 828 831 833 830 831 834 834 830 825 830 841 854 837 840 840 839 838 846 846 848 875
847 845 843 841 839 837 834 828 824 818 812 810 816 818 810 807 833 839 831 828 828 827 828 828 829 829 829 829 829 833 833 833 835 834 831 830 838 857 840 842 840 837 840 849 856 857 856
846 845 843 840 839 837 835 830 825 819 815 813 817 827 819 819 832 829 826 829 827 829 828 828 828 828 828 830 833 831 832 833 834 834 832 836 844 830 832 826 836 837 840 845 842 855 846
843 843 842 840 838 837 835 831 826 820 816 815 823 835 833 841 832 831 829 827 825 825 828 829 829 830 830 829 831 832 834 832 832 833 835 838 839 859 843 845 841 833 830 842 841 838 831
841 840 840 839 838 836 835 832 828 822 817 816 826 829 835 837 835 828 832 828 827 827 827 827 828 830 831 830 829 830 832 834 830 835 837 843 842 847 837 843 846 846 844 847 845 842 842
837 838 838 838 836 836 834 833 830 826 820 820 826 828 829 841 836 832 830 826 825 828 830 829 829 832 830 830 832 834 835 836 834 835 841 842 847 849 833 845 842 832 829 838 836 838 832
834 834 835 835 835 834 834 833 832 830 827 827 828 828 830 830 837 832 827 826 825 825 825 829 830 829 833 833 834 836 837 838 840 846 845 845 846 852 854 848 843 811 821 822 821 822 829
829 831 832 832 832 832 831 833 832 831 830 829 829 830 832 832 834 829 829 827 829 829 828 826 828 831 831 832 837 835 841 835 843 850 844 850 849 855 856 864 828 821 818 818 816 814 819
824 826 828 829 829 830 829 830 832 832 831 830 829 829 830 834 832 827 829 830 833 835 833 830 832 830 831 839 837 827 829 827 832 843 849 849 852 853 859 852 821 810 813 815 817 820 818
824 824 824 825 827 827 827 827 828 829 830 832 830 829 829 833 829 827 830 830 832 835 835 835 832 833 834 842 837 841 839 836 833 839 850 851 852 852 854 853 834 816 813 815 813 817 812
825 825 823 822 824 824 824 824 825 825 827 829 830 830 830 832 828 824 823 825 829 831 830 833 833 836 843 838 840 842 847 842 838 839 846 847 855 855 855 853 844 814 812 811 814 811 811
825 823 823 822 821 820 821 820 821 822 823 824 826 826 828 830 826 822 820 819 820 820 825 830 826 829 829 840 845 846 841 855 848 835 843 839 831 836 835 826 812 812 810 811 811 813 811